Location: Briis
(48.6240°N, 2.1211°E)
Time: 06:53:59
(UTC+00:00)

Cosmos 1844 Rocket - Pass Details

Date: 25 September 2020
Orbit: 823 x 846 km, 71.0° (Epoch: 19 October)

Event Time Altitude Azimuth Distance (km) Brightness Sun altitude
Rises 02:44:08 0° 335° (NNW) 3,396 6.0 -28.6°
Reaches altitude 10° 02:46:51 10° 345° (NNW) 2,462 5.3 -28.2°
Maximum altitude 02:51:54 32° 49° (NE) 1,402 4.4 -27.5°
Drops below altitude 10° 02:56:56 10° 112° (ESE) 2,461 5.5 -26.8°
Sets 02:59:38 0° 122° (ESE) 3,395 6.2 -26.5°
